[[{"header":{"parameterUnit":"m.s-1","parameterCategory":1,"la1":30.2991,"la2":30.254,"lo1":-89.0895,"lo2":-89.0444,"dx":0.0017,"dy":0.0017,"nx":28,"ny":28,"refTime":"2022-12-23T15:00:00:Z","depth":0,"parameterNumber":2,"parameterNumberName":"U-component_of_WINDS"},"data":[0,0,0,0,0,0,0,0,0,0,0,0,0,0,0,0,0,0,0,0,0,0,0,0,0,0,0,0,0,0,0,0,0,0,0,0,0,0,0,0,0,0,0,0,0,0,0,0,0,0,0,0,0,0,0,0,0,0,3.9613,3.9613,0,3.9645,3.9646,3.9646,3.9618,3.9617,3.9615,3.9614,3.9646,3.9647,3.9649,0,0,0,0,0,0,0,0,0,0,0,0,0,3.9527,3.9528,3.9613,3.9613,3.9614,3.9645,3.9646,3.9646,3.9618,3.9617,3.9615,3.9614,3.9645,3.9647,3.9649,0,0,0,0,0,0,0,0,0,0,0,0,0,3.9562,3.9529,3.9613,3.9604,3.9603,3.9645,3.9646,3.9646,3.9618,3.9616,3.9615,3.9613,3.9644,3.9647,3.965,3.9702,0,0,3.9659,3.966,0,0,0,0,0,0,0,0,3.956,3.9565,3.9605,3.9604,3.9604,3.9626,3.9627,3.9665,3.9619,3.9612,3.9614,3.9612,3.964,3.9643,3.9653,3.9704,3.9705,3.9659,3.9661,3.9662,3.9663,0,0,0,0,0,0,0,3.9558,3.9564,3.9626,3.9605,3.9605,3.9598,3.9601,3.9634,3.9636,3.9613,3.9611,3.9615,3.964,3.965,3.9654,3.9705,3.9659,3.9661,3.9663,3.9664,3.9803,3.9805,0,0,0,0,0,0,3.9556,3.9562,3.9625,3.9627,3.9577,3.9601,3.9604,3.962,3.9635,3.9636,3.9617,3.9614,3.9646,3.965,3.9655,3.9718,3.9662,3.9664,3.9666,3.9801,3.9803,3.9805,0,0,0,0,0,0,3.9555,3.9562,3.9623,3.9594,3.9601,3.9604,3.9623,3.9622,3.9633,3.9638,3.9638,3.9627,3.9645,3.9651,3.9691,3.9719,3.9666,3.9668,3.9798,3.9801,3.9804,3.9845,0,0,0,0,0,0,3.9552,3.9562,3.9582,3.9594,3.9603,3.9659,3.9624,3.9624,3.9638,3.9634,3.9648,3.9649,3.9644,3.9687,3.9694,3.9722,3.9671,3.9796,3.98,3.9803,3.9841,3.9849,3.9855,0,0,0,0,0,3.9549,3.9591,3.9583,3.959,3.9628,3.9661,3.9666,3.966,3.964,3.966,3.9664,3.9648,3.9715,3.9691,3.9699,3.9728,3.9794,3.9799,3.9803,3.9838,3.9847,3.9855,0,0,0,0,0,0,3.9579,3.9592,3.9583,3.963,3.9645,3.9656,3.9681,3.967,3.969,3.9686,3.9678,3.9681,3.9725,3.973,3.9704,3.9781,3.9751,3.9757,3.9775,3.9784,3.9791,3.9788,3.9673,0,0,0,0,0,3.9592,3.9618,3.9628,3.9668,3.9676,3.9678,3.9692,3.9687,3.9702,3.9707,3.9714,3.9728,3.9753,3.9769,3.9791,3.9842,3.9845,3.9866,3.9873,3.9879,3.9884,3.9913,3.9922,3.982,3.982,3.982,0,0,3.9617,3.9627,3.9644,3.9675,3.9686,3.9713,3.9683,3.9713,3.9734,3.9712,3.9751,3.9757,3.9772,3.9819,3.9839,3.9825,3.9913,3.9885,3.9889,3.9891,3.9918,3.9928,3.9937,3.9823,3.9822,3.9822,0,0,3.9677,3.9688,3.9723,3.9736,3.9753,3.9754,3.9763,3.9776,3.978,3.9819,3.9804,3.9828,3.987,3.9882,3.9894,3.9962,3.9949,3.997,4.0007,4.0035,4.0043,4.005,4.0075,4.0084,3.9975,3.9975,3.9975,0,3.9706,3.9748,3.9743,3.9775,3.9789,3.9772,3.9809,3.982,3.9844,3.9854,3.9838,3.9892,3.9901,3.9951,3.9968,3.9978,3.9988,3.9968,4.0042,4.005,4.0056,4.008,4.0089,3.9978,3.9977,3.9977,3.9977,0,3.9783,3.9812,3.9839,3.9864,3.9881,3.9915,3.9916,3.9934,3.9928,3.9931,3.9972,3.9983,4.0009,4.002,4.0014,4.007,4.006,4.0044,4.0014,4.0068,4.0091,4.01,3.9981,3.998,3.998,3.9979,0,0,3.9861,3.9885,3.9895,3.9906,3.9926,3.9948,3.9982,4.0008,4.0024,4.0042,4.007,4.0107,4.0093,4.0106,4.0101,4.0126,4.0181,4.0106,4.0107,4.012,4.0244,4.0256,4.0267,4.0173,4.0174,4.0176,4.0243,0,3.9922,3.9982,3.998,4.0035,4.0063,4.0049,4.0078,4.0093,4.0098,4.0122,4.0126,4.0153,4.0131,4.014,4.0164,4.0169,4.0205,4.0164,4.0199,4.02,4.0195,4.0278,4.0291,4.0353,4.0251,4.0253,4.0254,0,4.0001,4.0023,4.0082,4.0099,4.011,4.0137,4.0162,4.0185,4.0202,4.0204,4.0221,4.0213,4.0248,4.0218,4.0267,4.0239,4.0253,4.0258,4.0261,4.0263,4.023,4.0283,4.0373,4.0382,4.0267,4.0266,4.0265,0,4.0053,4.0097,4.0138,4.0149,4.017,4.0189,4.0199,4.0215,4.0231,4.0253,4.0263,4.0288,4.0302,4.0322,4.0321,4.03,4.0371,4.0341,4.0373,4.0373,4.0388,4.0387,4.0481,4.0398,4.0398,4.0397,4.0397,0,4.0121,4.0158,4.0162,4.0187,4.0228,4.0226,4.0267,4.0274,4.0289,4.0316,4.0305,4.033,4.0328,4.0354,4.0354,4.0395,4.0401,4.0403,4.0403,4.0404,4.0404,4.0413,4.0408,4.04,4.0399,4.0399,4.0398,0,4.0185,4.019,4.0234,4.0251,4.0256,4.0286,4.03,4.0324,4.0329,4.0363,4.0371,4.0378,4.0408,4.041,4.0444,4.0444,4.0494,4.0488,4.0488,4.0487,4.0519,4.0516,4.0622,4.0636,4.0544,4.0545,4.0545,0,4.0228,4.0257,4.0278,4.0295,4.0306,4.0335,4.0352,4.0352,4.037,4.0394,4.0415,4.0445,4.0468,4.0517,4.0525,4.0551,4.0546,4.0582,4.055,4.0551,4.0547,4.0545,4.0549,4.0588,4.0589,4.059,4.059,0,4.0305,4.0306,4.0332,4.0359,4.0381,4.0402,4.0421,4.0436,4.0438,4.046,4.0491,4.0509,4.0546,4.0575,4.0602,4.0611,4.0602,4.0601,4.061,4.0611,4.061,4.0611,4.0505,4.0598,4.0597,4.0597,4.0596,4.0596,4.036,4.0385,4.0404,4.0434,4.0449,4.0468,4.0492,4.0501,4.0527,4.0557,4.0555,4.059,4.0609,4.0644,4.0656,4.0683,4.0671,4.0684,4.0687,4.069,4.0694,4.0606,4.0688,4.0688,4.0688,4.0687,4.0687,0,4.0436,4.0448,4.0476,4.0504,4.0528,4.0518,4.054,4.056,4.0591,4.061,4.0634,4.0671,4.07,4.0711,4.074,4.076,4.0756,4.0767,4.0765,4.0768,4.0703,4.0692,4.077,4.077,4.077,4.077,4.077,4.077,4.0478,4.052,4.0525,4.0575,4.0586,4.0621,4.0635,4.0653,4.0668,4.071,4.0734,4.0742,4.0758,4.0788,4.0815,4.0817,4.0828,4.0842,4.0842,4.0781,4.0772,4.0764,4.0755,4.0844,4.0844,4.0905,4.0906,4.0906]},{"header":{"parameterUnit":"m.s-1","parameterCategory":1,"la1":30.2991,"la2":30.254,"lo1":-89.0895,"lo2":-89.0444,"dx":0.0017,"dy":0.0017,"nx":28,"ny":28,"refTime":"2022-12-23T15:00:00:Z","depth":0,"parameterNumber":3,"parameterNumberName":"V-component_of_WINDS"},"data":[0,0,0,0,0,0,0,0,0,0,0,0,0,0,0,0,0,0,0,0,0,0,0,0,0,0,0,0,0,0,0,0,0,0,0,0,0,0,0,0,0,0,0,0,0,0,0,0,0,0,0,0,0,0,0,0,0,0,-8.1391,-8.1392,0,-8.155,-8.1552,-8.1554,-8.1514,-8.151,-8.1507,-8.1504,-8.1663,-8.167,-8.1677,0,0,0,0,0,0,0,0,0,0,0,0,0,-8.1048,-8.1054,-8.139,-8.1392,-8.1394,-8.155,-8.1552,-8.1554,-8.1514,-8.151,-8.1507,-8.1503,-8.1661,-8.1669,-8.1678,0,0,0,0,0,0,0,0,0,0,0,0,0,-8.1201,-8.1057,-8.139,-8.1393,-8.1395,-8.155,-8.1552,-8.1555,-8.1515,-8.151,-8.1506,-8.1501,-8.1658,-8.1668,-8.1679,-8.1839,0,0,-8.1712,-8.1716,0,0,0,0,0,0,0,0,-8.1192,-8.1214,-8.1391,-8.1393,-8.1396,-8.1507,-8.149,-8.165,-8.1516,-8.1469,-8.1504,-8.1499,-8.1615,-8.1629,-8.1669,-8.1846,-8.1853,-8.1713,-8.1719,-8.1724,-8.1727,0,0,0,0,0,0,0,-8.1182,-8.1206,-8.1453,-8.1393,-8.1396,-8.1386,-8.1402,-8.152,-8.1566,-8.1473,-8.147,-8.149,-8.1615,-8.1659,-8.1672,-8.1855,-8.1712,-8.1722,-8.1728,-8.1733,-8.2174,-8.2179,0,0,0,0,0,0,-8.117,-8.1198,-8.1448,-8.1458,-8.1281,-8.1396,-8.1414,-8.1476,-8.1565,-8.1574,-8.1494,-8.1488,-8.1643,-8.166,-8.1678,-8.1873,-8.1724,-8.1734,-8.174,-8.2169,-8.2175,-8.2181,0,0,0,0,0,0,-8.1163,-8.1192,-8.1442,-8.1328,-8.1359,-8.1407,-8.1476,-8.1482,-8.1525,-8.1581,-8.1588,-8.153,-8.164,-8.1663,-8.18,-8.1877,-8.1739,-8.1748,-8.2163,-8.2171,-8.2178,-8.2262,0,0,0,0,0,0,-8.1153,-8.119,-8.1252,-8.1329,-8.1365,-8.1563,-8.1481,-8.1488,-8.1544,-8.1538,-8.1617,-8.1625,-8.1638,-8.1784,-8.1811,-8.189,-8.1757,-8.2156,-8.2166,-8.2176,-8.2253,-8.2272,-8.2289,0,0,0,0,0,-8.1141,-8.1267,-8.1255,-8.1285,-8.1443,-8.1567,-8.1587,-8.1601,-8.1551,-8.1613,-8.1649,-8.1623,-8.1865,-8.1799,-8.1828,-8.1911,-8.2151,-8.2163,-8.2175,-8.2245,-8.2268,-8.2288,0,0,0,0,0,0,-8.1195,-8.1277,-8.1265,-8.142,-8.1488,-8.156,-8.1639,-8.1625,-8.1706,-8.1696,-8.1707,-8.1726,-8.1867,-8.1902,-8.1827,-8.2072,-8.2,-8.2019,-8.2044,-8.2066,-8.2084,-8.2073,-8.1765,0,0,0,0,0,-8.1226,-8.1321,-8.1387,-8.1518,-8.1552,-8.159,-8.1645,-8.1649,-8.1718,-8.1746,-8.1792,-8.1859,-8.195,-8.201,-8.2097,-8.2258,-8.2275,-8.233,-8.2347,-8.2362,-8.2378,-8.2468,-8.2494,-8.222,-8.222,-8.222,0,0,-8.1289,-8.1346,-8.1404,-8.153,-8.1583,-8.1681,-8.1614,-8.1719,-8.1792,-8.1761,-8.1895,-8.1931,-8.2007,-8.2158,-8.2226,-8.2192,-8.2457,-8.2377,-8.2388,-8.2397,-8.2483,-8.2509,-8.2532,-8.2228,-8.2227,-8.2226,0,0,-8.1455,-8.1507,-8.1623,-8.1678,-8.1759,-8.1784,-8.1812,-8.1888,-8.1912,-8.2046,-8.2026,-8.2112,-8.2268,-8.2324,-8.2372,-8.2563,-8.2542,-8.259,-8.2684,-8.2772,-8.2793,-8.2813,-8.2882,-8.2907,-8.2606,-8.2606,-8.2606,0,-8.1523,-8.1671,-8.1684,-8.1793,-8.1849,-8.1829,-8.1947,-8.1998,-8.2103,-8.2142,-8.2103,-8.2301,-8.235,-8.2515,-8.2562,-8.2601,-8.2634,-8.2582,-8.2789,-8.2809,-8.2827,-8.2893,-8.2919,-8.2612,-8.2611,-8.261,-8.261,0,-8.1751,-8.1854,-8.1938,-8.2043,-8.2109,-8.2221,-8.2252,-8.2316,-8.2316,-8.2345,-8.2483,-8.2542,-8.2642,-8.2681,-8.268,-8.2846,-8.2823,-8.2786,-8.2715,-8.2858,-8.2921,-8.2946,-8.2619,-8.2617,-8.2616,-8.2614,0,0,-8.1955,-8.2068,-8.2099,-8.2147,-8.2236,-8.2316,-8.2428,-8.2528,-8.2584,-8.2657,-8.2752,-8.2886,-8.2854,-8.291,-8.2915,-8.2992,-8.3142,-8.2947,-8.2949,-8.2982,-8.333,-8.3358,-8.3388,-8.3128,-8.3133,-8.3137,-8.3325,0,-8.213,-8.233,-8.2346,-8.2525,-8.2622,-8.2604,-8.2702,-8.2767,-8.2798,-8.2883,-8.2915,-8.3012,-8.2961,-8.2995,-8.307,-8.3108,-8.3212,-8.3094,-8.3217,-8.3221,-8.32,-8.342,-8.3449,-8.3624,-8.3349,-8.3353,-8.3356,0,-8.2361,-8.2444,-8.2634,-8.2713,-8.2753,-8.2841,-8.2936,-8.3017,-8.3091,-8.3108,-8.3172,-8.3168,-8.3283,-8.3207,-8.3367,-8.3286,-8.3337,-8.3364,-8.3371,-8.3383,-8.3298,-8.344,-8.3679,-8.3706,-8.3395,-8.3392,-8.3389,0,-8.2493,-8.2652,-8.2787,-8.2829,-8.2923,-8.2986,-8.3028,-8.3097,-8.3157,-8.3239,-8.3278,-8.3371,-8.3422,-8.3494,-8.3516,-8.3458,-8.3675,-8.3601,-8.3693,-8.3693,-8.374,-8.3737,-8.3992,-8.3771,-8.377,-8.377,-8.3769,0,-8.2687,-8.2805,-8.2848,-8.2931,-8.3063,-8.308,-8.3209,-8.3247,-8.331,-8.34,-8.3389,-8.3474,-8.3496,-8.3585,-8.3602,-8.3733,-8.3755,-8.3772,-8.3775,-8.3774,-8.3772,-8.3808,-8.3797,-8.3777,-8.3775,-8.3774,-8.3773,0,-8.2857,-8.2891,-8.3037,-8.3116,-8.3138,-8.3232,-8.3299,-8.3379,-8.3408,-8.3523,-8.355,-8.3596,-8.3701,-8.3729,-8.3852,-8.3864,-8.4019,-8.401,-8.3995,-8.3995,-8.4086,-8.4078,-8.4375,-8.4415,-8.4166,-8.4168,-8.417,0,-8.298,-8.307,-8.316,-8.322,-8.3266,-8.3363,-8.3425,-8.3446,-8.3511,-8.3604,-8.3673,-8.3776,-8.386,-8.4027,-8.4071,-8.4166,-8.416,-8.4258,-8.4174,-8.4171,-8.4164,-8.4159,-8.4169,-8.4274,-8.4276,-8.4278,-8.428,0,-8.3195,-8.3208,-8.3298,-8.3396,-8.3471,-8.3548,-8.3622,-8.3672,-8.3703,-8.3777,-8.3885,-8.395,-8.4078,-8.4181,-8.4278,-8.432,-8.4306,-8.4306,-8.4333,-8.4333,-8.4322,-8.4331,-8.404,-8.4299,-8.4297,-8.4296,-8.4295,-8.4294,-8.3346,-8.3427,-8.3503,-8.3605,-8.3664,-8.3734,-8.3814,-8.3855,-8.3946,-8.4053,-8.406,-8.4177,-8.425,-8.4379,-8.4427,-8.4519,-8.4489,-8.4527,-8.4537,-8.4547,-8.4556,-8.4306,-8.4536,-8.4535,-8.4535,-8.4534,-8.4534,0,-8.3562,-8.3611,-8.3705,-8.3811,-8.3891,-8.3873,-8.3954,-8.4023,-8.4127,-8.4197,-8.4281,-8.4406,-8.4506,-8.4559,-8.4659,-8.4722,-8.4719,-8.4748,-8.4744,-8.4755,-8.4575,-8.4543,-8.475,-8.475,-8.4749,-8.4749,-8.4749,-8.4749,-8.3685,-8.3821,-8.3843,-8.4009,-8.4056,-8.4173,-8.4222,-8.4287,-8.4343,-8.4484,-8.4568,-8.4603,-8.4667,-8.4772,-8.4863,-8.4876,-8.4914,-8.4947,-8.4957,-8.4789,-8.4767,-8.4746,-8.4716,-8.4955,-8.4955,-8.5129,-8.5131,-8.5132]}]]